Year,Month,Day,Hour,Minute,Value (Times are PST for temperature in C)
2016,05,03,00,00,13.70
2016,05,03,00,01,13.70
2016,05,03,00,02,13.70
2016,05,03,00,03,13.70
2016,05,03,00,04,13.70
2016,05,03,00,05,13.70
2016,05,03,00,06,13.70
2016,05,03,00,07,13.70
2016,05,03,00,08,13.70
2016,05,03,00,09,13.60
2016,05,03,00,10,13.60
2016,05,03,00,11,13.60
2016,05,03,00,12,13.60
2016,05,03,00,13,13.60
2016,05,03,00,14,13.60
2016,05,03,00,15,13.60
2016,05,03,00,16,13.60
2016,05,03,00,17,13.60
2016,05,03,00,18,13.60
2016,05,03,00,19,13.60
2016,05,03,00,20,13.60
2016,05,03,00,21,13.60
2016,05,03,00,22,13.60
2016,05,03,00,23,13.60
2016,05,03,00,24,13.60
2016,05,03,00,25,13.50
2016,05,03,00,26,13.50
2016,05,03,00,27,13.50
2016,05,03,00,28,13.50
2016,05,03,00,29,13.50
2016,05,03,00,30,13.40
2016,05,03,00,31,13.40
2016,05,03,00,32,13.40
2016,05,03,00,33,13.40
2016,05,03,00,34,13.40
2016,05,03,00,35,13.40
2016,05,03,00,36,13.40
2016,05,03,00,37,13.40
2016,05,03,00,38,13.40
2016,05,03,00,39,13.40
2016,05,03,00,40,13.40
2016,05,03,00,41,13.40
2016,05,03,00,42,13.40
2016,05,03,00,43,13.40
2016,05,03,00,44,13.40
2016,05,03,00,45,13.40
2016,05,03,00,46,13.40
2016,05,03,00,47,13.40
2016,05,03,00,48,13.40
2016,05,03,00,49,13.30
2016,05,03,00,50,13.30
2016,05,03,00,51,13.30
2016,05,03,00,52,13.30
2016,05,03,00,53,13.30
2016,05,03,00,54,13.30
2016,05,03,00,55,13.30
2016,05,03,00,56,13.20
2016,05,03,00,57,13.20
2016,05,03,00,58,13.20
2016,05,03,00,59,13.20
2016,05,03,01,00,13.20
2016,05,03,01,01,13.10
2016,05,03,01,02,13.10
2016,05,03,01,03,13.10
2016,05,03,01,04,13.20
2016,05,03,01,05,13.20
2016,05,03,01,06,13.20
2016,05,03,01,07,13.20
2016,05,03,01,08,13.20
2016,05,03,01,09,13.20
2016,05,03,01,10,13.20
2016,05,03,01,11,13.20
2016,05,03,01,12,13.20
2016,05,03,01,13,13.20
2016,05,03,01,14,13.20
2016,05,03,01,15,13.20
2016,05,03,01,16,13.20
2016,05,03,01,17,13.20
2016,05,03,01,18,13.20
2016,05,03,01,19,13.20
2016,05,03,01,20,13.20
2016,05,03,01,21,13.20
2016,05,03,01,22,13.20
2016,05,03,01,23,13.20
2016,05,03,01,24,13.20
2016,05,03,01,25,13.20
2016,05,03,01,26,13.20
2016,05,03,01,27,13.20
2016,05,03,01,28,13.20
2016,05,03,01,29,13.20
2016,05,03,01,30,13.20
2016,05,03,01,31,13.20
2016,05,03,01,32,13.20
2016,05,03,01,33,13.20
2016,05,03,01,34,13.30
2016,05,03,01,35,13.30
2016,05,03,01,36,13.30
2016,05,03,01,37,13.30
2016,05,03,01,38,13.30
2016,05,03,01,39,13.30
2016,05,03,01,40,13.30
2016,05,03,01,41,13.40
2016,05,03,01,42,13.40
2016,05,03,01,43,13.40
2016,05,03,01,44,13.40
2016,05,03,01,45,13.50
2016,05,03,01,46,13.50
2016,05,03,01,47,13.50
2016,05,03,01,48,13.60
2016,05,03,01,49,13.60
2016,05,03,01,50,13.60
2016,05,03,01,51,13.60
2016,05,03,01,52,13.70
2016,05,03,01,53,13.70
2016,05,03,01,54,13.80
2016,05,03,01,55,13.80
2016,05,03,01,56,13.80
2016,05,03,01,57,13.90
2016,05,03,01,58,13.90
2016,05,03,01,59,13.90
2016,05,03,02,00,14.00
2016,05,03,02,01,14.00
2016,05,03,02,02,14.00
2016,05,03,02,03,14.10
2016,05,03,02,04,14.10
2016,05,03,02,05,14.10
2016,05,03,02,06,14.00
2016,05,03,02,07,14.00
2016,05,03,02,08,14.00
2016,05,03,02,09,14.00
2016,05,03,02,10,14.00
2016,05,03,02,11,14.00
2016,05,03,02,12,14.00
2016,05,03,02,13,14.00
2016,05,03,02,14,14.00
2016,05,03,02,15,14.00
2016,05,03,02,16,14.00
2016,05,03,02,17,14.00
2016,05,03,02,18,14.00
2016,05,03,02,19,14.00
2016,05,03,02,20,14.00
2016,05,03,02,21,14.00
2016,05,03,02,22,14.00
2016,05,03,02,23,14.00
2016,05,03,02,24,14.00
2016,05,03,02,25,14.10
2016,05,03,02,26,14.10
2016,05,03,02,27,14.10
2016,05,03,02,28,14.10
2016,05,03,02,29,14.10
2016,05,03,02,30,14.20
2016,05,03,02,31,14.20
2016,05,03,02,32,14.20
2016,05,03,02,33,14.20
2016,05,03,02,34,14.20
2016,05,03,02,35,14.20
2016,05,03,02,36,14.20
2016,05,03,02,37,14.20
2016,05,03,02,38,14.30
2016,05,03,02,39,14.30
2016,05,03,02,40,14.30
2016,05,03,02,41,14.30
2016,05,03,02,42,14.30
2016,05,03,02,43,14.30
2016,05,03,02,44,14.30
2016,05,03,02,45,14.30
2016,05,03,02,46,14.30
2016,05,03,02,47,14.30
2016,05,03,02,48,14.30
2016,05,03,02,49,14.30
2016,05,03,02,50,14.30
2016,05,03,02,51,14.30
2016,05,03,02,52,14.30
2016,05,03,02,53,14.30
2016,05,03,02,54,14.30
2016,05,03,02,55,14.30
2016,05,03,02,56,14.30
2016,05,03,02,57,14.40
2016,05,03,02,58,14.40
2016,05,03,02,59,14.40
2016,05,03,03,00,14.40
2016,05,03,03,01,14.40
2016,05,03,03,02,14.40
2016,05,03,11,03,14.40
2016,05,03,11,04,14.40
2016,05,03,11,05,14.40
2016,05,03,11,06,14.40
2016,05,03,11,07,14.40
2016,05,03,11,08,14.40
2016,05,03,11,09,14.40
2016,05,03,11,10,14.40
2016,05,03,11,11,14.50
2016,05,03,11,12,14.50
2016,05,03,11,13,14.50
2016,05,03,11,14,14.50
2016,05,03,11,15,14.50
2016,05,03,11,16,14.50
2016,05,03,11,17,14.60
2016,05,03,11,18,14.60
2016,05,03,11,19,14.60
2016,05,03,11,20,14.60
2016,05,03,11,21,14.60
2016,05,03,11,22,14.60
2016,05,03,11,23,14.60
2016,05,03,11,24,14.60
2016,05,03,11,25,14.60
2016,05,03,11,26,14.60
2016,05,03,11,27,14.70
2016,05,03,11,28,14.70
2016,05,03,11,29,14.70
2016,05,03,11,30,14.70
2016,05,03,11,31,14.70
2016,05,03,11,32,14.70
2016,05,03,11,33,14.70
2016,05,03,11,34,14.70
2016,05,03,11,35,14.70
2016,05,03,11,36,14.70
2016,05,03,11,37,14.70
2016,05,03,11,38,14.70
2016,05,03,11,39,14.70
2016,05,03,11,40,14.70
2016,05,03,11,41,14.60
2016,05,03,11,42,14.60
2016,05,03,11,43,14.60
2016,05,03,11,44,14.60
2016,05,03,11,45,14.60
2016,05,03,11,46,14.60
2016,05,03,11,47,14.60
2016,05,03,11,48,14.60
2016,05,03,11,49,14.60
2016,05,03,11,50,14.60
2016,05,03,11,51,14.60
2016,05,03,11,52,14.60
2016,05,03,11,53,14.50
2016,05,03,11,54,14.50
2016,05,03,11,55,14.50
2016,05,03,11,56,14.50
2016,05,03,11,57,14.50
2016,05,03,11,58,14.50
2016,05,03,11,59,14.50
2016,05,03,12,00,14.50
2016,05,03,12,01,14.40
2016,05,03,12,02,14.40
2016,05,03,12,03,14.40
2016,05,03,12,04,14.40
2016,05,03,12,05,14.50
2016,05,03,12,06,14.50
2016,05,03,12,07,14.50
2016,05,03,12,08,14.50
2016,05,03,12,09,14.50
2016,05,03,12,10,14.50
2016,05,03,12,11,14.50
2016,05,03,12,12,14.50
2016,05,03,12,13,14.50
2016,05,03,12,14,14.50
2016,05,03,12,15,14.50
2016,05,03,12,16,14.50
2016,05,03,12,17,14.50
2016,05,03,12,18,14.50
2016,05,03,12,19,14.50
2016,05,03,12,20,14.50
2016,05,03,12,21,14.50
2016,05,03,12,22,14.50
2016,05,03,12,23,14.50
2016,05,03,12,24,14.50
2016,05,03,12,25,14.50
2016,05,03,12,26,14.50
2016,05,03,12,27,14.50
2016,05,03,12,28,14.50
2016,05,03,12,29,14.50
2016,05,03,12,30,14.50
2016,05,03,12,31,14.50
2016,05,03,12,32,14.50
2016,05,03,12,33,14.50
2016,05,03,12,34,14.50
2016,05,03,12,35,14.60
2016,05,03,12,36,14.60
2016,05,03,12,37,14.60
2016,05,03,12,38,14.60
2016,05,03,12,39,14.60
2016,05,03,12,40,14.60
2016,05,03,12,41,14.60
2016,05,03,12,42,14.70
2016,05,03,12,43,14.70
2016,05,03,12,44,14.70
2016,05,03,12,45,14.70
2016,05,03,12,46,14.70
2016,05,03,12,47,14.70
2016,05,03,12,48,14.70
2016,05,03,12,49,14.70
2016,05,03,12,50,14.70
2016,05,03,12,51,14.70
2016,05,03,12,52,14.70
2016,05,03,12,53,14.70
2016,05,03,12,54,14.80
2016,05,03,12,55,14.80
2016,05,03,12,56,14.70
2016,05,03,12,57,14.70
2016,05,03,12,58,14.60
2016,05,03,12,59,14.60
2016,05,03,13,00,14.60
2016,05,03,13,01,14.60
2016,05,03,13,02,14.60
2016,05,03,13,03,14.60
2016,05,03,13,04,14.60
2016,05,03,13,05,14.60
2016,05,03,13,06,14.70
2016,05,03,13,07,14.70
2016,05,03,13,08,14.70
2016,05,03,13,09,14.80
2016,05,03,13,10,14.80
2016,05,03,13,11,14.80
2016,05,03,13,12,14.80
2016,05,03,13,13,14.80
2016,05,03,13,14,14.80
2016,05,03,13,15,14.80
2016,05,03,13,16,14.70
2016,05,03,13,17,14.70
2016,05,03,13,18,14.70
2016,05,03,13,19,14.70
2016,05,03,13,20,14.70
2016,05,03,13,21,14.70
2016,05,03,13,22,14.60
2016,05,03,13,23,14.60
2016,05,03,13,24,14.60
2016,05,03,13,25,14.70
2016,05,03,13,26,14.70
2016,05,03,13,27,14.70
2016,05,03,13,28,14.70
2016,05,03,13,29,14.70
2016,05,03,13,30,14.70
2016,05,03,13,31,14.70
2016,05,03,13,32,14.80
2016,05,03,13,33,14.80
2016,05,03,13,34,14.90
2016,05,03,13,35,15.00
2016,05,03,13,36,15.10
2016,05,03,13,37,15.10
2016,05,03,13,38,15.20
2016,05,03,13,39,15.20
2016,05,03,13,40,15.20
2016,05,03,13,41,15.20
2016,05,03,13,42,15.20
2016,05,03,13,43,15.20
2016,05,03,13,44,15.20
2016,05,03,13,45,15.20
2016,05,03,13,46,15.20
2016,05,03,13,47,15.20
2016,05,03,13,48,15.30
2016,05,03,13,49,15.30
2016,05,03,13,50,15.30
2016,05,03,13,51,15.20
2016,05,03,13,52,15.20
2016,05,03,13,53,15.20
2016,05,03,13,54,15.10
2016,05,03,13,55,15.10
2016,05,03,13,56,15.00
2016,05,03,13,57,15.00
2016,05,03,13,58,14.90
2016,05,03,13,59,14.90
2016,05,03,14,00,14.90
2016,05,03,14,01,14.80
2016,05,03,14,02,14.80
2016,05,03,14,03,14.80
2016,05,03,14,04,14.70
2016,05,03,14,05,14.70
2016,05,03,14,06,14.70
2016,05,03,14,07,14.70
2016,05,03,14,08,14.70
2016,05,03,14,09,14.70
2016,05,03,14,10,14.70
2016,05,03,14,11,14.70
2016,05,03,14,12,14.70
2016,05,03,14,13,14.60
2016,05,03,14,14,14.60
2016,05,03,14,15,14.60
2016,05,03,14,16,14.60
2016,05,03,14,17,14.60
2016,05,03,14,18,14.50
2016,05,03,14,19,14.50
2016,05,03,14,20,14.40
2016,05,03,14,21,14.40
2016,05,03,14,22,14.40
2016,05,03,14,23,14.30
2016,05,03,14,24,14.30
2016,05,03,14,25,14.30
2016,05,03,14,26,14.20
2016,05,03,14,27,14.20
2016,05,03,14,28,14.20
2016,05,03,14,29,14.20
2016,05,03,14,30,14.20
2016,05,03,14,31,14.20
2016,05,03,14,32,14.20
2016,05,03,14,33,14.20
2016,05,03,14,34,14.10
2016,05,03,14,35,14.10
2016,05,03,14,36,14.10
2016,05,03,14,37,14.10
2016,05,03,14,38,14.10
2016,05,03,14,39,14.10
2016,05,03,14,40,14.10
2016,05,03,14,41,14.10
2016,05,03,14,42,14.10
2016,05,03,14,43,14.10
2016,05,03,14,44,14.10
2016,05,03,14,45,14.10
2016,05,03,14,46,14.10
2016,05,03,14,47,14.10
2016,05,03,14,48,14.10
2016,05,03,14,49,14.10
2016,05,03,14,50,14.20
2016,05,03,14,51,14.20
2016,05,03,14,52,14.20
2016,05,03,14,53,14.20
2016,05,03,14,54,14.20
2016,05,03,14,55,14.20
2016,05,03,14,56,14.20
2016,05,03,14,57,14.20
2016,05,03,14,58,14.20
2016,05,03,14,59,14.20
2016,05,03,15,00,14.20
2016,05,03,15,01,14.20
2016,05,03,15,02,14.20
2016,05,03,15,03,14.20
2016,05,03,15,04,14.30
2016,05,03,15,05,14.30
2016,05,03,15,06,14.30
2016,05,03,15,07,14.30
2016,05,03,15,08,14.30
2016,05,03,15,09,14.30
2016,05,03,15,10,14.30
2016,05,03,15,11,14.30
2016,05,03,15,12,14.30
2016,05,03,15,13,14.30
2016,05,03,15,14,14.30
2016,05,03,15,15,14.40
2016,05,03,15,16,14.40
2016,05,03,15,17,14.40
2016,05,03,15,18,14.40
2016,05,03,15,19,14.40
2016,05,03,15,20,14.50
2016,05,03,15,21,14.50
2016,05,03,15,22,14.50
2016,05,03,15,23,14.50
2016,05,03,15,24,14.60
2016,05,03,15,25,14.50
2016,05,03,15,26,14.60
2016,05,03,15,27,14.60
2016,05,03,15,28,14.60
2016,05,03,15,29,14.60
2016,05,03,15,30,14.60
2016,05,03,15,31,14.60
2016,05,03,15,32,14.60
2016,05,03,15,33,14.60
2016,05,03,15,34,14.60
2016,05,03,15,35,14.60
2016,05,03,15,36,14.70
2016,05,03,15,37,14.70
2016,05,03,15,38,14.70
2016,05,03,15,39,14.70
2016,05,03,15,40,14.70
2016,05,03,15,41,14.70
2016,05,03,15,42,14.70
2016,05,03,15,43,14.70
2016,05,03,15,44,14.70
2016,05,03,15,45,14.80
2016,05,03,15,46,14.80
2016,05,03,15,47,14.80
2016,05,03,15,48,14.80
2016,05,03,15,49,14.80
2016,05,03,15,50,14.80
2016,05,03,15,51,14.90
2016,05,03,15,52,14.90
2016,05,03,15,53,14.90
2016,05,03,15,54,14.80
2016,05,03,15,55,14.80
2016,05,03,15,56,14.80
2016,05,03,15,57,14.90
2016,05,03,15,58,14.90
2016,05,03,15,59,14.90
2016,05,03,16,00,14.90
2016,05,03,16,01,14.90
2016,05,03,16,02,14.90
2016,05,03,16,03,14.90
2016,05,03,16,04,14.90
2016,05,03,16,05,14.90
2016,05,03,16,06,14.90
2016,05,03,16,07,15.00
2016,05,03,16,08,15.00
2016,05,03,16,09,15.00
2016,05,03,16,10,15.00
2016,05,03,16,11,15.00
2016,05,03,16,12,15.00
2016,05,03,16,13,14.90
2016,05,03,16,14,14.90
2016,05,03,16,15,14.90
2016,05,03,16,16,14.90
2016,05,03,16,17,14.90
2016,05,03,16,18,14.90
2016,05,03,16,19,14.90
2016,05,03,16,20,14.90
2016,05,03,16,21,15.00
2016,05,03,16,22,14.90
2016,05,03,16,23,14.90
2016,05,03,16,24,14.90
2016,05,03,16,25,14.90
2016,05,03,16,26,14.90
2016,05,03,16,27,14.90
2016,05,03,16,28,14.90
2016,05,03,16,29,14.90
2016,05,03,16,30,14.90
2016,05,03,16,31,14.90
2016,05,03,16,32,14.90
2016,05,03,16,33,14.90
2016,05,03,16,34,14.90
2016,05,03,16,35,14.90
2016,05,03,16,36,14.90
2016,05,03,16,37,14.90
2016,05,03,16,38,14.90
2016,05,03,16,39,14.90
2016,05,03,16,40,15.00
2016,05,03,16,41,15.00
2016,05,03,16,42,15.00
2016,05,03,16,43,15.00
2016,05,03,16,44,15.00
2016,05,03,16,45,15.10
2016,05,03,16,46,15.10
2016,05,03,16,47,15.10
2016,05,03,16,48,15.10
2016,05,03,16,49,15.10
2016,05,03,16,50,15.10
2016,05,03,16,51,15.10
2016,05,03,16,52,15.10
2016,05,03,16,53,15.10
2016,05,03,16,54,15.10
2016,05,03,16,55,15.10
2016,05,03,16,56,15.10
2016,05,03,16,57,15.10
2016,05,03,16,58,15.10
2016,05,03,16,59,15.10
2016,05,03,17,00,15.10
2016,05,03,17,01,15.10
2016,05,03,17,02,15.10
2016,05,03,17,03,15.10
2016,05,03,17,04,15.20
2016,05,03,17,05,15.20
2016,05,03,17,06,15.20
2016,05,03,17,07,15.20
2016,05,03,17,08,15.20
2016,05,03,17,09,15.20
2016,05,03,17,10,15.20
2016,05,03,17,11,15.20
2016,05,03,17,12,15.20
2016,05,03,17,13,15.20
2016,05,03,17,14,15.30
2016,05,03,17,15,15.30
2016,05,03,17,16,15.30
2016,05,03,17,17,15.30
2016,05,03,17,18,15.30
2016,05,03,17,19,15.30
2016,05,03,17,20,15.30
2016,05,03,17,21,15.30
2016,05,03,17,22,15.30
2016,05,03,17,23,15.30
2016,05,03,17,24,15.30
2016,05,03,17,25,15.30
2016,05,03,17,26,15.30
2016,05,03,17,27,15.30
2016,05,03,17,28,15.30
2016,05,03,17,29,15.30
2016,05,03,17,30,15.40
2016,05,03,17,31,15.40
2016,05,03,17,32,15.40
2016,05,03,17,33,15.30
2016,05,03,17,34,15.30
2016,05,03,17,35,15.30
2016,05,03,17,36,15.30
2016,05,03,17,37,15.30
2016,05,03,17,38,15.30
2016,05,03,17,39,15.20
2016,05,03,17,40,15.20
2016,05,03,17,41,15.20
2016,05,03,17,42,15.10
2016,05,03,17,43,15.10
2016,05,03,17,44,15.00
2016,05,03,17,45,14.90
2016,05,03,17,46,14.90
2016,05,03,17,47,15.00
2016,05,03,17,48,15.00
2016,05,03,17,49,14.90
2016,05,03,17,50,15.00
2016,05,03,17,51,15.00
2016,05,03,17,52,15.00
2016,05,03,17,53,15.00
2016,05,03,17,54,15.00
2016,05,03,17,55,15.00
2016,05,03,17,56,15.00
2016,05,03,17,57,14.90
2016,05,03,17,58,14.90
2016,05,03,17,59,14.80
2016,05,03,18,00,14.80
2016,05,03,18,01,14.80
2016,05,03,18,02,14.80
2016,05,03,18,03,14.80
2016,05,03,18,04,14.80
2016,05,03,18,05,14.70
2016,05,03,18,06,14.70
2016,05,03,18,07,14.70
2016,05,03,18,08,14.70
2016,05,03,18,09,14.70
2016,05,03,18,10,14.70
2016,05,03,18,11,14.70
2016,05,03,18,12,14.70
2016,05,03,18,13,14.70
2016,05,03,18,14,14.70
2016,05,03,18,15,14.70
2016,05,03,18,16,14.70
2016,05,03,18,17,14.70
2016,05,03,18,18,14.70
2016,05,03,18,19,14.70
2016,05,03,18,20,14.70
2016,05,03,18,21,14.80
2016,05,03,18,22,14.80
2016,05,03,18,23,14.80
2016,05,03,18,24,14.80
2016,05,03,18,25,14.80
2016,05,03,18,26,14.80
2016,05,03,18,27,14.90
2016,05,03,18,28,14.90
2016,05,03,18,29,14.90
2016,05,03,18,30,14.80
2016,05,03,18,31,14.80
2016,05,03,18,32,14.80
2016,05,03,18,33,14.80
2016,05,03,18,34,14.80
2016,05,03,18,35,14.90
2016,05,03,18,36,14.90
2016,05,03,18,37,14.90
2016,05,03,18,38,14.90
2016,05,03,18,39,14.90
2016,05,03,18,40,15.00
2016,05,03,18,41,14.90
2016,05,03,18,42,14.90
2016,05,03,18,43,14.90
2016,05,03,18,44,14.90
2016,05,03,18,45,14.90
2016,05,03,18,46,14.90
2016,05,03,18,47,14.90
2016,05,03,18,48,14.90
2016,05,03,18,49,14.90
2016,05,03,18,50,14.90
2016,05,03,18,51,14.90
2016,05,03,18,52,14.90
2016,05,03,18,53,15.00
2016,05,03,18,54,15.00
2016,05,03,18,55,15.00
2016,05,03,18,56,15.00
2016,05,03,18,57,15.00
2016,05,03,18,58,15.00
2016,05,03,18,59,14.90
2016,05,03,19,00,14.90
2016,05,03,19,01,14.90
2016,05,03,19,02,14.90
2016,05,03,19,03,14.90
2016,05,03,19,04,14.80
2016,05,03,19,05,14.80
2016,05,03,19,06,14.80
2016,05,03,19,07,14.80
2016,05,03,19,08,14.70
2016,05,03,19,09,14.70
2016,05,03,19,10,14.70
2016,05,03,19,11,14.70
2016,05,03,19,12,14.70
2016,05,03,19,13,14.70
2016,05,03,19,14,14.70
2016,05,03,19,15,14.70
2016,05,03,19,16,14.70
2016,05,03,19,17,14.70
2016,05,03,19,18,14.70
2016,05,03,19,19,14.70
2016,05,03,19,20,14.60
2016,05,03,19,21,14.60
2016,05,03,19,22,14.60
2016,05,03,19,23,14.60
2016,05,03,19,24,14.50
2016,05,03,19,25,14.50
2016,05,03,19,26,14.50
2016,05,03,19,27,14.50
2016,05,03,19,28,14.50
2016,05,03,19,29,14.50
2016,05,03,19,30,14.50
2016,05,03,19,31,14.50
2016,05,03,19,32,14.40
2016,05,03,19,33,14.40
2016,05,03,19,34,14.40
2016,05,03,19,35,14.30
2016,05,03,19,36,14.30
2016,05,03,19,37,14.30
2016,05,03,19,38,14.30
2016,05,03,19,39,14.30
2016,05,03,19,40,14.30
2016,05,03,19,41,14.30
2016,05,03,19,42,14.30
2016,05,03,19,43,14.20
2016,05,03,19,44,14.20
2016,05,03,19,45,14.20
2016,05,03,19,46,14.20
2016,05,03,19,47,14.20
2016,05,03,19,48,14.20
2016,05,03,19,49,14.20
2016,05,03,19,50,14.20
2016,05,03,19,51,14.10
2016,05,03,19,52,14.10
2016,05,03,19,53,14.10
2016,05,03,19,54,14.10
2016,05,03,19,55,14.10
2016,05,03,19,56,14.10
2016,05,03,19,57,14.10
2016,05,03,19,58,14.10
2016,05,03,19,59,14.00
2016,05,03,20,00,14.00
2016,05,03,20,01,14.00
2016,05,03,20,02,14.00
2016,05,03,20,03,14.00
2016,05,03,20,04,14.00
2016,05,03,20,05,14.00
2016,05,03,20,06,13.90
2016,05,03,20,07,13.90
2016,05,03,20,08,13.90
2016,05,03,20,09,13.90
2016,05,03,20,10,13.80
2016,05,03,20,11,13.80
2016,05,03,20,12,13.80
2016,05,03,20,13,13.80
2016,05,03,20,14,13.80
2016,05,03,20,15,13.80
2016,05,03,20,16,13.70
2016,05,03,20,17,13.70
2016,05,03,20,18,13.70
2016,05,03,20,19,13.70
2016,05,03,20,20,13.70
2016,05,03,20,21,13.70
2016,05,03,20,22,13.70
2016,05,03,20,23,13.70
2016,05,03,20,24,13.70
2016,05,03,20,25,13.70
2016,05,03,20,26,13.70
2016,05,03,20,27,13.60
2016,05,03,20,28,13.60
2016,05,03,20,29,13.60
2016,05,03,20,30,13.60
2016,05,03,20,31,13.50
2016,05,03,20,32,13.50
2016,05,03,20,33,13.50
2016,05,03,20,34,13.50
2016,05,03,20,35,13.50
2016,05,03,20,36,13.50
2016,05,03,20,37,13.50
2016,05,03,20,38,13.50
2016,05,03,20,39,13.50
2016,05,03,20,40,13.40
2016,05,03,20,41,13.40
2016,05,03,20,42,13.40
2016,05,03,20,43,13.30
2016,05,03,20,44,13.30
2016,05,03,20,45,13.30
2016,05,03,20,46,13.40
2016,05,03,20,47,13.40
2016,05,03,20,48,13.30
2016,05,03,20,49,13.30
2016,05,03,20,50,13.30
2016,05,03,20,51,13.30
2016,05,03,20,52,13.20
2016,05,03,20,53,13.20
2016,05,03,20,54,13.20
2016,05,03,20,55,13.20
2016,05,03,20,56,13.20
2016,05,03,20,57,13.20
2016,05,03,20,58,13.20
2016,05,03,20,59,13.20
2016,05,03,21,00,13.20
2016,05,03,21,01,13.20
2016,05,03,21,02,13.20
2016,05,03,21,03,13.20
2016,05,03,21,04,13.20
2016,05,03,21,05,13.30
2016,05,03,21,06,13.30
2016,05,03,21,07,13.30
2016,05,03,21,08,13.30
2016,05,03,21,09,13.20
2016,05,03,21,10,13.20
2016,05,03,21,11,13.20
2016,05,03,21,12,13.20
2016,05,03,21,13,13.20
2016,05,03,21,14,13.10
2016,05,03,21,15,13.10
2016,05,03,21,16,13.10
2016,05,03,21,17,13.10
2016,05,03,21,18,13.10
2016,05,03,21,19,13.10
2016,05,03,21,20,13.10
2016,05,03,21,21,13.10
2016,05,03,21,22,13.00
2016,05,03,21,23,13.00
2016,05,03,21,24,13.00
2016,05,03,21,25,13.00
2016,05,03,21,26,13.00
2016,05,03,21,27,13.00
2016,05,03,21,28,12.90
2016,05,03,21,29,12.90
2016,05,03,21,30,12.90
2016,05,03,21,31,12.90
2016,05,03,21,32,12.90
2016,05,03,21,33,12.80
2016,05,03,21,34,12.80
2016,05,03,21,35,12.80
2016,05,03,21,36,12.80
2016,05,03,21,37,12.70
2016,05,03,21,38,12.70
2016,05,03,21,39,12.70
2016,05,03,21,40,12.70
2016,05,03,21,41,12.70
2016,05,03,21,42,12.70
2016,05,03,21,43,12.70
2016,05,03,21,44,12.70
2016,05,03,21,45,12.60
2016,05,03,21,46,12.60
2016,05,03,21,47,12.60
2016,05,03,21,48,12.60
2016,05,03,21,49,12.50
2016,05,03,21,50,12.50
2016,05,03,21,51,12.40
2016,05,03,21,52,12.40
2016,05,03,21,53,12.40
2016,05,03,21,54,12.30
2016,05,03,21,55,12.30
2016,05,03,21,56,12.30
2016,05,03,21,57,12.30
2016,05,03,21,58,12.30
2016,05,03,21,59,12.20
2016,05,03,22,00,12.20
2016,05,03,22,01,12.20
2016,05,03,22,02,12.20
2016,05,03,22,03,12.20
2016,05,03,22,04,12.20
2016,05,03,22,05,12.20
2016,05,03,22,06,12.20
2016,05,03,22,07,12.20
2016,05,03,22,08,12.10
2016,05,03,22,09,12.10
2016,05,03,22,10,12.10
2016,05,03,22,11,12.10
2016,05,03,22,12,12.10
2016,05,03,22,13,12.00
2016,05,03,22,14,12.00
2016,05,03,22,15,11.90
2016,05,03,22,16,11.90
2016,05,03,22,17,11.90
2016,05,03,22,18,11.80
2016,05,03,22,19,11.80
2016,05,03,22,20,11.80
2016,05,03,22,21,11.70
2016,05,03,22,22,11.70
2016,05,03,22,23,11.70
2016,05,03,22,24,11.60
2016,05,03,22,25,11.60
2016,05,03,22,26,11.60
2016,05,03,22,27,11.50
2016,05,03,22,28,11.50
2016,05,03,22,29,11.40
2016,05,03,22,30,11.40
2016,05,03,22,31,11.40
2016,05,03,22,32,11.30
2016,05,03,22,33,11.30
2016,05,03,22,34,11.20
2016,05,03,22,35,11.20
2016,05,03,22,36,11.10
2016,05,03,22,37,11.10
2016,05,03,22,38,11.00
2016,05,03,22,39,11.00
2016,05,03,22,40,11.00
2016,05,03,22,41,10.90
2016,05,03,22,42,10.90
2016,05,03,22,43,10.90
2016,05,03,22,44,10.80
2016,05,03,22,45,10.80
2016,05,03,22,46,10.80
2016,05,03,22,47,10.80
2016,05,03,22,48,10.70
2016,05,03,22,49,10.70
2016,05,03,22,50,10.70
2016,05,03,22,51,10.70
2016,05,03,22,52,10.70
2016,05,03,22,53,10.70
2016,05,03,22,54,10.60
2016,05,03,22,55,10.60
2016,05,03,22,56,10.60
2016,05,03,22,57,10.60
2016,05,03,22,58,10.60
2016,05,03,22,59,10.50
2016,05,03,23,00,10.50
2016,05,03,23,01,10.50
2016,05,03,23,02,10.50
2016,05,03,23,03,10.40
2016,05,03,23,04,10.40
2016,05,03,23,05,10.40
2016,05,03,23,06,10.40
2016,05,03,23,07,10.40
2016,05,03,23,08,10.40
2016,05,03,23,09,10.40
2016,05,03,23,10,10.40
2016,05,03,23,11,10.30
2016,05,03,23,12,10.30
2016,05,03,23,13,10.30
2016,05,03,23,14,10.30
2016,05,03,23,15,10.30
2016,05,03,23,16,10.30
2016,05,03,23,17,10.20
2016,05,03,23,18,10.20
2016,05,03,23,19,10.20
2016,05,03,23,20,10.20
2016,05,03,23,21,10.10
2016,05,03,23,22,10.10
2016,05,03,23,23,10.10
2016,05,03,23,24,10.10
2016,05,03,23,25,10.10
2016,05,03,23,26,10.00
2016,05,03,23,27,10.00
2016,05,03,23,28,10.00
2016,05,03,23,29,10.00
2016,05,03,23,30,10.00
2016,05,03,23,31,9.90
2016,05,03,23,32,9.90
2016,05,03,23,33,9.90
2016,05,03,23,34,9.90
2016,05,03,23,35,9.80
2016,05,03,23,36,9.80
2016,05,03,23,37,9.80
2016,05,03,23,38,9.80
2016,05,03,23,39,9.80
2016,05,03,23,40,9.80
2016,05,03,23,41,9.80
2016,05,03,23,42,9.80
2016,05,03,23,43,9.80
2016,05,03,23,44,9.80
2016,05,03,23,45,9.80
2016,05,03,23,46,9.80
2016,05,03,23,47,9.80
2016,05,03,23,48,9.80
2016,05,03,23,49,9.80
2016,05,03,23,50,9.80
2016,05,03,23,51,9.80
2016,05,03,23,52,9.80
2016,05,03,23,53,9.80
2016,05,03,23,54,9.70
2016,05,03,23,55,9.70
2016,05,03,23,56,9.70
2016,05,03,23,57,9.70
2016,05,03,23,58,9.70
2016,05,03,23,59,9.70
